This is the latest recevied weather packets stored in our database for station/object JA3QOS-13. If no packets are shown the sender has not sent any weather packets the latest 10 day(s).
| Time | Temp. | Humidity | Pressure | Rain* | Wind** | Luminosity | Snow |
|---|---|---|---|---|---|---|---|
| 1787983204 | 25.56° C | 99% | 1009.6 hPa | 0 mm | - | - | - |
| 1787981404 | 25.56° C | 99% | 1010 hPa | 0 mm | - | - | - |
| 1787979604 | 25° C | 99% | 1010.2 hPa | 0 mm | - | - | - |
| 1787977803 | 25° C | 99% | 1010.3 hPa | 0 mm | - | - | - |
| 1787976004 | 24.44° C | 99% | 1010.6 hPa | 0 mm | - | - | - |
| 1787974204 | 25° C | 99% | 1010.7 hPa | 0 mm | - | - | - |
| 1787972404 | 24.44° C | 99% | 1010.7 hPa | 0 mm | - | - | - |
| 1787970604 | 24.44° C | 99% | 1010.7 hPa | 0 mm | - | - | - |
| 1787968804 | 24.44° C | 99% | 1010.8 hPa | 0 mm | - | - | - |
| 1787967004 | 23.89° C | 99% | 1011 hPa | 0 mm | - | - | - |
| 1787965204 | 23.33° C | 99% | 1010.9 hPa | 0 mm | - | - | - |
| 1787963404 | 23.33° C | 99% | 1011.1 hPa | 0 mm | - | - | - |
| 1787961626 | 23.33° C | 99% | 1011.1 hPa | 0 mm | - | - | - |
| 1787959803 | 23.33° C | 99% | 1011 hPa | 0.51 mm | - | - | - |
| 1787958004 | 23.33° C | 99% | 1011 hPa | 0.51 mm | - | - | - |
| 1787956204 | 23.33° C | 99% | 1010.6 hPa | 0.25 mm | - | - | - |
| 1787954403 | 23.33° C | 99% | 1011.1 hPa | 0.25 mm | - | - | - |
| 1787952603 | 23.33° C | 99% | 1010.8 hPa | 0.51 mm | - | - | - |
| 1787950804 | 22.78° C | 99% | 1010.9 hPa | 0.51 mm | - | - | - |
| 1787949003 | 22.78° C | 99% | 1010.8 hPa | 1.02 mm | - | - | - |
| 1787947203 | 22.78° C | 99% | 1011 hPa | 2.79 mm | - | - | - |
| 1787945403 | 22.78° C | 99% | 1011.1 hPa | 1.78 mm | - | - | - |
| 1787943604 | 22.78° C | 99% | 1011 hPa | 0.25 mm | - | - | - |
| 1787941804 | 22.78° C | 99% | 1011 hPa | 0.25 mm | - | - | - |
| 1787940004 | 22.78° C | 99% | 1011.2 hPa | 0.25 mm | - | - | - |
* Rain latest hour (hover to see other rain measurements)
** Current wind speed in m/s (hover to see current wind gust speed)